Regional Weather Roundup
Issued by NWS Green Bay, WI

Home | Current Version | Previous Version | Text Only | Print | Product List | Glossary On
Versions: 1 2 3 4 5 6 7 8 9 10 11 12 13 14 15 16 17 18 19 20 21 22 23 24 25 26 27 28 29 30 31 32 33 34 35 36 37 38 39 40 41 42 43 44 45 46 47 48 49 50
000
ASUS43 KGRB 301759
RWRGRB

NORTH-CENTRAL AND NORTHEAST WISCONSIN REGIONAL WEATHER ROUNDUP
NATIONAL WEATHER SERVICE GREEN BAY WI
100 PM CDT WED JUL 30 2014

WIZ005-009-010>012-018-019-301900-
NORTH CENTRAL WISCONSIN

CITY           SKY/WX    TMP DP  RH WIND       PRES   REMARKS
IRONWOOD       NOT AVBL
MANITOWISH WTR NOT AVBL
ARBOR VITAE    NOT AVBL
EAGLE RIVER    NOT AVBL
LAND O LAKES   NOT AVBL
RHINELANDER      N/A     70  47  43 NW9       30.06F
PHILLIPS       NOT AVBL
ANTIGO         NOT AVBL
TOMAHAWK       NOT AVBL
MERRILL        NOT AVBL
$$

WIZ013-073-301900-
NORTHEAST WISCONSIN

CITY           SKY/WX    TMP DP  RH WIND       PRES   REMARKS
IRON MOUNTAIN    N/A     72  44  36 W8        30.00F
MARINETTE      CLOUDY    66  52  59 S7        30.01F
$$

WIZ017-030-035>037-045-301900-
CENTRAL WISCONSIN

CITY           SKY/WX    TMP DP  RH WIND       PRES   REMARKS
MEDFORD        NOT AVBL
WAUSAU           N/A     71  49  45 NW10      30.05F
MOSINEE        MOSUNNY   72  46  40 NW7       30.07F
MARSHFIELD     PTSUNNY   72  52  49 NW8       30.07F
WISC RAPIDS      N/A     74  49  41 N9        30.07F
STEVENS POINT  NOT AVBL
WAUPACA        NOT AVBL
SHAWANO        NOT AVBL
CLINTONVILLE   NOT AVBL
$$

WIZ038-039-048-051-301900-
FOX VALLEY

CITY           SKY/WX    TMP DP  RH WIND       PRES   REMARKS
NWS GREEN BAY    N/A     70  54  56 N12       30.04F
APPLETON       NOT AVBL
OSHKOSH        PTSUNNY   70  55  59 CALM      30.04F
FOND DU LAC      N/A     71  55  56 NE6       30.05F
$$

WIZ022-050-052-301900-
EAST CENTRAL WISCONSIN

CITY           SKY/WX    TMP DP  RH WIND       PRES   REMARKS
STURGEON BAY     N/A     66  48  52 NE5       30.04F
MANITOWOC      NOT AVBL
SHEBOYGAN      PTSUNNY   72  54  53 N8        30.04F
$$

LMZ563-521-522-541>543-301900-
LAKESHORE

STATION/POSITION TIME  TEMP    WIND        PRES    VSBY  WAVE
                       AIR SEA DIR/SP/G                  HT/PER
                 (UTC) (F)     (DEG/KT/KT) (MB)    (MI)  (FT/S)
SHEBOYGAN LKSHOR 1700   60     140/  3/  4 1018.0R
KEWAUNEE LKSHORE 1700   58     170/  5/  6 1017.9F
ALGOMA MARINA    1700          110/  7/  8   N/A
NORTHPORT PIER   1700   62     310/  6/  8 1017.3R
N MID LAKE BUOY  1700   53 54  100/  2/  4 1016.8R         1
S GREEN BAY BUOY 1700   63 67  100/  6     1018.2F
SISTER BAY LKSHO 1700   64     350/  9/  9   N/A
CHAMBERS ISLAND  1700   63      20/  4/  4 1017.6S
MENOMINEE LKSHOR 1700   63     130/  7/  8 1017.4F
$$


USA.gov is the U.S. government's official web portal to all federal, state and local government web resources and services.